Погода Комсомольск-на-Амуре

Погода Комсомольск-на-Амуре : погода сейчас, прогноз погоды и архив. Всё, что Вы хотите узнать о погоде Комсомольск-на-Амуре!

Хотите узнать прогноз погоды Комсомольск-на-Амуре? Тогда Вам сюда: Погода Комсомольск-на-Амуре

Поиск расширенной информации на нашем сайте:

Другие новости

Новости СМИ2

Главная страница сайта

Новости сайта

02.10.2013

Напоминаем, что на нашем новом сайте вы можете получить высокодетализированные прогнозы погоды по пунктам России, СНГ и мира (включающие важные для авиации метеовеличины, такие как направление и скорость ветра, видимость, явления погоды, количество и форма облачности, нижняя и верхняя граница облачности), а также ознакомиться с разнообразными материалами по авиационной метеорологии и подборкой полезных ссылок на эту тему.

Сайт Метеоцентр.Азия посвящён разработке технологий оптимизации авиаметеорологического обслуживания, включая проектирование и перспективное создание нескольких автоматизированных авиаметеорологических систем:
- система выпуска высокодетальных прогностических карт явлений погоды для нижнего воздушного пространства по России и ближнему зарубежью;
- система верификации прогнозов TAF (выпускаемых синоптиками официальных АМСГ РФ и ближнего зарубежья) и AUTOTAF (выпускаемых сайтом Метеоцентр.Азия) - выявление ошибок, онлайн-сопоставление с фактической погодой METAR, автоматическое внесение коррективов в прогнозы при резком отклонении фактической погоды от прогноза, подсчёт оправдываемости прогнозов по элементам и в целом;
- система обработки, анализа и отображения авиаметеорологической информации для применения провайдерами метеорологической информации.


Погода Комсомольск-на-Амуре - сегодня

Время (UTC), дата Ветер
(°,м/с) 
Видим.   Явления Облачность Т
(°С)
Тd
(°С)
f(%) Тe
(°С)
Pmin
(гПа)
dP
(гПа)
Po
(мм)
O2
(г/м3)
Тmin Tmax R s Состояние
почвы
18 16.01.17 020 (С) 20000 м    8/0 верхняя 
[Cs]
-13.8 -16.7 79 -16  1029.2  0.3  770  328           
21 16.01.17 тихо ()   20000 м    ясно 
-18.8 -21.3 81 -19  1029.7  0.4  770  335  -18.8      12  равномерный
сухой снег
100% 
00 17.01.17 тихо ()   20000 м    ясно 
-17.7 -19.6 85 -18  1030.5  0.8  771  334  -20         
03 17.01.17 360 (С) 20000 м    ясно 
-11.2 -16.4 65 -13  1029.8  -0.6  770  325           
06 17.01.17 150 (ЮВ) 20000 м    ясно 
-9.5 -16.2 58 -9  1029.2  -0.6  770  323           
09 17.01.17 тихо ()   20000 м    ясно 
-17 -19.7 80 -17  1029.8  0.5  770  333    -8.7       
12 17.01.17 тихо ()   20000 м    ясно 
-21.5 -23.6 83 -22  1030  0.2  770  339           
15 17.01.17 тихо ()   20000 м    10/10 600 м 
[Sc]
-20.9 -23.1 82 -21  1029.9  0.1  770  338           
18 17.01.17 тихо ()   20000 м    10/8 600 м средняя 
[Sc|As trans]
-20.6 -23.3 79 -21  1029.7  -0.2  770  337           
21 17.01.17 тихо ()   20000 м    10/0 средняя 
[As op]
-19.4 -21.6 83 -19  1029.1  -0.6  770  336  -23.1      12  равномерный
сухой снег
100% 
00 18.01.17 020 (С) 10 км  слаб. снег  10/0 средняя, верхняя 
[As op|Cs]
-17.1 -19.8 80 -20  1028.5  -0.6  769  332           
03 18.01.17 360 (С) 20000 м  {снег}  10/3 600 м средняя 
[Sc|Ac trans]
-13.5 -17.6 71 -16  1027.1  -1.4  768  327           
06 18.01.17 030 (СВ) 20000 м  {снег}  10/4 600 м средняя 
[Sc|Ac lent]
-12.3 -16.8 69 -14  1025.8  -1.2  767  325           
09 18.01.17 350 (С) 20000 м    10/4 600 м средняя, верхняя 
[Sc|Ac trans|Cs]
-13.8 -17.6 73 -14  1025.7  0.1  767  327    -12.1  0.0     
12 18.01.17 тихо ()   20000 м    10/0 средняя 
[Ac As]
-16.2 -18.7 81 -16  1025.5  -0.2  767  330           
15 18.01.17 030 (СВ) 20000 м    5/0 средняя, верхняя 
[Ac trans|Ci fib]
-16.7 -18.8 84 -19  1025.1  -0.4  767  331           
18 18.01.17 тихо ()   20000 м    10/0 средняя 
[Ac As]
-17.8 -20.5 79 -18  1024.8  -0.3  767  332           
21 18.01.17 030 (СВ) 20000 м    10/0 средняя, верхняя 
[As trans|Cs]
-16.5 -19 81 -17  1024.4  -0.4  766  330  -19.1      12  равномерный
сухой снег
100% 
00 19.01.17 040 (СВ) 20000 м    8/4 600 м средняя, верхняя 
[Sc|Ac cast|Ci fib]
-16.6 -19.7 77 -17  1024.6  0.2  766  330           
03 19.01.17 260 (З) 20000 м    10/0 средняя, верхняя 
[As op|Ci]
-13.7 -18.8 65 -14  1023.7  -0.9  766  326           
06 19.01.17 200 (Ю) 20000 м    10/4 600 м верхняя 
[Ci]
-14 -19.2 65 -14  1023.1  -0.6  765  327           
09 19.01.17 210 (ЮЗ) 20000 м    4/3 600 м верхняя 
[Sc|Ci fib]
-18.7 -20.8 83 -19  1023.5  0.4  766  333    -13.3       
12 19.01.17 тихо ()   20000 м    3/0 верхняя 
[Ci fib]
-21.9 -23.8 84 -22  1023  -0.5  765  337           
15 19.01.17 020 (С) 10 км  слаб. снег  10/0 средняя 
[As op]
-19.4 -21.6 83 -22  1022.8  -0.2  765  334           
18 19.01.17 040 (СВ) 10 км  снег  10/0 средняя 
[As op]
-19.9 -22.2 82 -20  1022.5  -0.3  765  334           
Время (UTC), дата Ветер
(°,м/с) 
Видим.   Явления Облачность Т
(°С)
Тd
(°С)
f(%) Тe
(°С)
Pmin
(гПа)
dP
(гПа)
Po
(мм)
O2
(г/м3)
Тmin Tmax R s Состояние
почвы

Для получения пояснительной информации подведите курсор к названию столбца.

ПОГОДА Комсомольск-на-Амуре - архив

Всё, что Вы хотите узнать о погоде Комсомольск-на-Амуре - удобно и подробно!

Выберите нужную дату (начиная с 1 января 2015* года) и нажмите кнопку "Найти".
Будут отображены архивные сводки погоды по пункту Комсомольск-на-Амуре, начиная с указанной даты.


Отображать данные в формате CSV (для использования в таблицах Excel)


Внимание! Наш архив погоды предназначен исключительно для личного некоммерческого использования в познавательных целях. Если Вам необходимы официальные справки о состоянии погоды (для производственных, юридических, коммерческих и т.п. целей), обращайтесь в органы Росгидромета.

*Примечание: данная дата относится к архиву по метеостанциям СССР (Россия, СНГ, Балтия).
Архив по метеостанциям Зарубежной Европы и Азии (кроме Китая) хранится 10 дней, по другим регионам земного шара (Китай, Африка, Америка, Австралия, Океания) - 1 день.

Комсомольск-на-Амуре - район местоположения метеостанции


Название, широта, долгота, высота метеостанции:
Комсомольск-на-Амуре 50.6°ш. 137°д. 19 м над ур. моря [Российская Федерация]

Дополнительная информация

В oтличие oт бoльшинства пoгoдных сайтoв мы публикуем пoдрoбную метеoинфoрмацию в детальнoм прoфессиoнальнoм фoрмате.

Характеристики температуры и влажнoсти вoздуха измеряются на высoте 2 м в тени вдали oт зданий и деревьев.
Скoрoсть ветра измеряется на высoте 10 м (на урoвне рoста челoвека скoрoсть ветра ниже в 1.5-2 раза). Если метеoстанция нахoдится в гoрoде или в лесу, тo скoрoсть ветра занижена на 2-4 м/с пo сравнению с oткрытым местoм. Скoрoсть ветра над акватoриями крупных рек и oзёр, а также на вершинах хoлмoв на 2-5 м/с выше, чем в oбычных услoвиях.
Атмoсфернoе давление в разных тoчках местнoсти мoжет значительнo oтличаться oт давления на метеoстанции, в зависимoсти oт услoвий рельефа (при пoдъёме на 10 м давление пoнижается примернo на 1 мм рт.ст.).